Simultaneous Nadir Overpasses (SNOs) Predictions

Prediction of SNOs between GOES-17 and LANDSAT-8 Satellite Orbit:

Table of predicted SNOs for the next 14.0 days since TLE Epoch: 6/24/2023
Index Date Time (GOES-17) GOES-17 Lat,Lon LANDSAT-8 Lat,Lon Distance(km) Time Diff (sec)
1 06/24/2023 17:09:31 0.01,-104.73 0.04,-104.75 3.42 80
2 06/26/2023 17:00:02 0.01,-104.74 -0.60,-101.80 334.11 80
3 06/27/2023 05:21:27 -0.01,-104.72 -0.49,-106.99 258.90 80
4 06/29/2023 05:06:37 -0.01,-104.72 0.11,-104.04 77.23 80
5 07/01/2023 04:54:28 -0.01,-104.72 0.80,-101.09 412.94 80
6 07/01/2023 17:15:43 0.01,-104.74 0.35,-106.24 171.05 80
7 07/03/2023 17:06:13 0.00,-104.74 -0.30,-103.29 164.45 80
8 07/04/2023 05:27:37 -0.00,-104.71 -0.83,-108.47 428.10 80
9 07/06/2023 05:15:27 -0.01,-104.71 -0.16,-105.53 92.45 80
